Location: ??????
(55.2000°N, 38.3000°E)
Time: 01:39:29
(UTC+00:00)

Cosmos 1461 - Pass Details

Date: 15 November 2025
Orbit: 429 x 518 km, 65.0° (Epoch: 12 December)

Event Time Altitude Azimuth Distance (km) Brightness Sun altitude
Exits shadow 04:07:35 - 317° (NW) 1,999 5.1 -7.5°
Reaches altitude 10° 04:08:10 10° 321° (NW) 1,782 4.9 -7.4°
Maximum altitude 04:11:51 34° 27° (NNE) 880 3.9 -6.9°
Drops below altitude 10° 04:15:29 10° 94° (E) 1,755 6.8 -6.4°
Sets 04:17:47 0° 104° (ESE) 2,628 8.5 -6.1°
